Location: Góry Miechowskie
(50.3599°N, 20.1803°E)
Time: 15:14:56
(UTC+00:00)

Cosmos 1892 Rocket - Visible Passes

Search period start: 08 September 2024 00:00
Search period end: 18 September 2024 00:00
Orbit: 602 x 629 km, 82.5° (Epoch: 07 September)

Date Brightness Start Highest point End Pass type
(mag) Time Alt. Az. Time Alt. Az. Time Alt. Az.
08 Sep 5.5 00:40:02 10° N 00:43:50 27° ENE 00:46:02 19° ESE visible
08 Sep 4.1 02:17:40 10° NNW 02:21:42 36° W 02:23:03 29° SW visible
09 Sep 4.5 00:56:01 10° N 01:00:15 44° ENE 01:01:20 37° ESE visible
09 Sep 4.8 02:34:22 10° NW 02:37:47 22° W 02:38:21 22° W visible
09 Sep 6.5 23:36:51 10° NE 23:37:56 11° ENE 23:39:02 10° ENE visible
10 Sep 3.6 01:12:09 10° N 01:16:35 75° E 01:16:43 74° E visible
10 Sep 5.4 02:51:34 10° NW 02:53:44 14° W 02:53:44 14° W visible
10 Sep 6.0 23:51:37 10° NNE 23:54:33 17° ENE 23:55:09 17° ENE visible
11 Sep 3.8 01:28:25 10° NNW 01:32:12 57° NW 01:32:12 57° NW visible
12 Sep 5.5 00:07:17 10° N 00:10:42 26° ENE 00:10:42 26° ENE visible
12 Sep 4.6 01:44:51 10° NNW 01:47:44 31° NW 01:47:44 31° NW visible
13 Sep 5.1 00:23:13 10° N 00:26:17 35° NE 00:26:17 35° NE visible
13 Sep 5.3 02:01:31 10° NW 02:03:20 19° NW 02:03:20 19° NW visible
13 Sep 6.6 23:04:19 10° NE 23:04:54 10° NE 23:04:54 10° NE visible
14 Sep 5.0 00:39:19 10° N 00:41:57 35° N 00:41:57 35° N visible
14 Sep 5.8 02:18:36 10° NW 02:18:59 11° NW 02:18:59 11° NW visible
14 Sep 6.3 23:18:51 10° NNE 23:20:35 15° NE 23:20:35 15° NE visible
15 Sep 5.2 00:55:34 10° NNW 00:57:37 27° NNW 00:57:37 27° NNW visible
15 Sep 6.1 23:34:27 10° NNE 23:36:17 19° NNE 23:36:17 19° NNE visible
16 Sep 5.6 01:11:58 10° NNW 01:13:20 19° NNW 01:13:20 19° NNW visible
16 Sep 6.0 23:50:22 10° N 23:52:01 21° NNE 23:52:01 21° NNE visible
17 Sep 6.0 01:28:35 10° NW 01:29:05 12° NW 01:29:05 12° NW visible
